Regional Weather Roundup
Issued by NWS

Home | Current Version | Previous Version | Graphics & Text | Print | Product List | Glossary On
Versions: 1 2 3 4 5 6 7 8 9 10 11 12 13 14 15 16 17 18 19 20 21 22 23 24 25 26 27 28 29 30 31 32 33 34 35 36 37 38 39 40 41 42 43 44 45 46 47 48 49 50
000
ASUS43 KDTX 242001
RWRMI
MICHIGAN HOURLY REGIONAL WEATHER ROUNDUP
NATIONAL WEATHER SERVICE DETROIT/PONTIAC MI
400 PM EDT FRI APR 24 2015

NOTE: "FAIR" INDICATES FEW OR NO CLOUDS BELOW 12,000 FEET WITH NO
SIGNIFICANT WEATHER AND/OR OBSTRUCTION TO VISIBILITY.

MIZ047>049-052>055-059>063-066>070-074>076-081>083-242100-
SOUTHEAST LOWER MICHIGAN

CITY           SKY/WX    TMP DP  RH WIND       PRES   REMARKS
ADRIAN         SUNNY     57  21  24 W6        30.01F
ALMA           SUNNY     55  19  24 W5G16     30.02F
ANN ARBOR      SUNNY     57  19  22 NW8       30.01F
BAD AXE        SUNNY     47  17  31 W7G17     30.03F
CARO           SUNNY     51  24  34 CALM      30.02F
DETROIT CITY   SUNNY     54  16  22 NW8       30.02F
DETROIT        MOSUNNY   59  19  21 W10       30.02F
FLINT          MOSUNNY   54  18  24 VRB5G26   30.03F
GROSSE ILE     SUNNY     48  32  53 SE12      30.01F
HILLSDALE      SUNNY     56  19  23 CALM      30.01F
HOWELL         SUNNY     55  17  22 W9G16     30.01F

CITY           SKY/WX    TMP DP  RH WIND       PRES   REMARKS
JACKSON        SUNNY     56  21  25 VRB5      30.00F
LAMBERTVILLE   SUNNY     59  23  25 W10       30.02F
LANSING        SUNNY     54  20  26 NW12      30.02F
LAPEER         FAIR      51  15  23 W10       30.02F
MASON          SUNNY     54  20  27 NW3       30.01F
MONROE         SUNNY     57  23  26 W15       30.00F
MT. CLEMENS    MOSUNNY   49  25  37 SE8       30.00F
PONTIAC        MOSUNNY   53  17  24 VRB7      30.00F
PORT HOPE        N/A     38  26  62 NE9       30.03F WCI  31
PORT HURON     SUNNY     46  27  46 NE13      30.04R
TRI CITIES     SUNNY     53  18  25 VRB6      30.02F
TROY           SUNNY     54  15  21 NW13      30.03F
SAGINAW HB     SUNNY     52  21  30 CALM      30.01F
$$
MIZ043>046-050>051-056>058-064>065-071>073-077>080-242100-
SOUTHWEST LOWER MICHIGAN

CITY           SKY/WX    TMP DP  RH WIND       PRES   REMARKS
BATTLE CREEK   SUNNY     57  22  25 VRB5      30.01F
BENTON HARBOR  MOSUNNY   54  17  23 N6        30.00F
BIG RAPIDS     SUNNY     54  18  23 N12       29.98F
COLDWATER      SUNNY     57  20  23 W3        30.01S
FREMONT        FAIR      55  15  20 E5        30.00F
HOLLAND        SUNNY     57  21  24 W5        30.02F
GRAND RAPIDS   MOSUNNY   55  19  24 CALM      30.01F
IONIA          FAIR      55  19  24 CALM      30.00F
KALAMAZOO      SUNNY     59  22  24 SW6       30.01F
LUDINGTON      SUNNY     53  19  26 W9        30.03F
MARSHALL       SUNNY     56  22  26 CALM      30.00F
MOUNT PLEASANT SUNNY     54  16  22 S3        30.00F
MUSKEGON       SUNNY     54  16  22 W12       30.02F
SOUTH HAVEN    SUNNY     57  14  18 NW6       30.01F
$$
MIZ016>042-242100-
NORTHERN LOWER MICHIGAN

CITY           SKY/WX    TMP DP  RH WIND       PRES   REMARKS
ALPENA         SUNNY     48  11  22 NW10G22   30.02F
BEAVER ISLAND  SUNNY     45  16  31 W10       30.06F
BELLAIRE       SUNNY     45  16  31 N6        30.05F
CADILLAC       SUNNY     51  17  26 NW8       30.00F
CHARLEVOIX     SUNNY     39  12  32 N5        30.10F
FRANKFORT      SUNNY     48  10  21 N9        30.05S
GAYLORD        SUNNY     42  10  27 N7        30.02F
GRAYLING       SUNNY     47  15  27 N9        30.02S
HARBOR SPRINGS SUNNY     37  20  50 SW10      30.05F WCI  30
HOUGHTON LAKE  SUNNY     48  16  27 W10       30.01F
MANISTEE       SUNNY     46  25  42 NW9       30.05F
OSCODA         SUNNY     41  25  53 E10       30.03F
PELLSTON       SUNNY     44  14  29 MISG      30.05F
ROGERS CITY    SUNNY     42  19  40 N13G20    30.05S
TRAVERSE CITY  PTSUNNY   42  21  43 N10       30.05F
$$
MIZ007>008-015-242100-
EASTERN UPPER MICHIGAN

CITY           SKY/WX    TMP DP  RH WIND       PRES   REMARKS
KINROSS        SUNNY     37  16  41 NW17      30.04F WCI  28
MACKINAC ISLAN SUNNY     40  21  46 SW6       30.04F
NEWBERRY       SUNNY     40  21  46 N6G20     30.05S
S. S. MARIE    SUNNY     36  15  42 NW16      30.05F WCI  26
$$
MIZ004>006-011>014-085-242100-
CENTRAL UPPER MICHIGAN

CITY           SKY/WX    TMP DP  RH WIND       PRES   REMARKS
MANISTIQUE     SUNNY     40  24  52 S13       30.05F WCI  33
ESCANABA       SUNNY     39  25  56 S12       30.04F WCI  32
MENOMINEE      MOSUNNY   45  25  45 SE9       30.05S
SAWYER-GWINN   SUNNY     45  19  36 NE14      30.00F
$$
MIZ001>003-009>011-084-242100-
WESTERN UPPER MICHIGAN

CITY           SKY/WX    TMP DP  RH WIND       PRES   REMARKS
IRON MOUNTAIN  MOSUNNY   51  15  23 E3        29.97F
HOUGHTON       SUNNY     42  21  43 E9        30.02F
COPPER HARBOR    N/A     37  28  70 E15       30.06F WCI  28
IRONWOOD       CLOUDY    46  25  42 SW7       29.94F
$$

ABBREVIATIONS USED IN REMARKS
   TC - TEMPERATURE IN CELSIUS
  WCI - WIND CHILL INDEX
   HX - HEAT INDEX
  VSB - VISIBILITY




USA.gov is the U.S. government's official web portal to all federal, state and local government web resources and services.